Regional Weather Roundup
Issued by NWS Sioux Falls, SD

Home | Current Version | Previous Version | Text Only | Print | Product List | Glossary Off
Versions: 1 2 3 4 5 6 7 8 9 10 11 12 13 14 15 16 17 18 19 20 21 22 23 24 25 26 27 28 29 30 31 32 33 34 35 36 37 38 39 40 41 42 43 44 45 46 47 48 49 50

000
ASUS43 KFSD 251410
RWRFSD

WEATHER ROUNDUP FOR SE SOUTH DAKOTA/SW MINNESOTA/NW IOWA
NATIONAL WEATHER SERVICE SIOUX FALLS SD
800 AM CST SUN JAN 25 2015

NOTE: "FAIR" INDICATES FEW OR NO CLOUDS BELOW 12,000 FEET WITH NO
SIGNIFICANT WEATHER AND OR OBSTRUCTIONS TO VISIBILITY.


SDZ038>040-050-052>070-251500-
SOUTHEAST SOUTH DAKOTA

CITY           SKY/WX    TMP DP  RH WIND       PRES   REMARKS
CHAMBERLAIN    CLOUDY    36  32  85 NW12      29.97R
HURON          CLOUDY    30  28  92 N10       29.97R WCI  21
MADISON        CLOUDY    30  30 100 N13       29.92R WCI  20
MITCHELL       CLOUDY    32  30  92 NW9       29.98R WCI  24
SIOUX FALLS    CLOUDY    33  31  92 N12       29.92R WCI  24
WINNER         CLOUDY    38  31  76 NW15      29.99R
YANKTON        CLOUDY    32  28  86 NW16      29.95R WCI  21
$$

MNZ071-072-080-081-089-090-097-098-251500-
SOUTHWEST MINNESOTA

CITY           SKY/WX    TMP DP  RH WIND       PRES   REMARKS
FAIRMONT       CLOUDY    30  27  86 N14       29.87R WCI  20
JACKSON        CLOUDY    30  28  93 N15       29.88R WCI  19
LUVERNE        CLOUDY    34  32  93 N8        29.91R WCI  27
MARSHALL       CLOUDY    30  28  93 N9        29.95R WCI  22
MONTEVIDEO     CLOUDY    30  30 100 E7        29.96R WCI  23
PIPESTONE      CLOUDY    30  30 100 N12G18    29.90R FOG     WCI  21
REDWOOD FALLS  CLOUDY    30  25  81 NE5       29.93R WCI  25
TRACY          CLOUDY    31  29  93 NE9       29.92R WCI  23
WINDOM         CLOUDY    28  27  93 N12       29.90R WCI  18
WORTHINGTON    CLOUDY    30  28  93 N14       29.89R WCI  20
$$

IAZ001>003-012>014-020>022-031-032-NEZ013-014-SDZ071-251500-
NORTHWEST IOWA

CITY           SKY/WX    TMP DP  RH WIND       PRES   REMARKS
CHEROKEE       CLOUDY    33  33  97 N14       29.86R WCI  24
DENISON        LGT RAIN  34  34 100 N18G24    29.79R WCI  23
ESTHERVILLE    CLOUDY    30  29  96 N20G26    29.86R WCI  17
LE MARS        CLOUDY    34  34 100 N10G17    29.90R WCI  26
ORANGE CITY    CLOUDY    36  30  80 N10       29.88R
SHELDON        MIX PCPN  32  32 100 N20       29.87R WCI  20
SIOUX CITY     CLOUDY    36  32  85 N17       29.88R
SPENCER        LGT SNOW  33  29  85 N18       29.87R FOG     WCI  22
STORM LAKE     CLOUDY    32  32 100 N22G30    29.83R FOG     WCI  19
$$

ABBREVIATIONS USED IN REMARKS
   TC - TEMPERATURE IN CELSIUS
  WCI - WIND CHILL INDEX
   HX - HEAT INDEX
  VSB - VISIBILITY




USA.gov is the U.S. government's official web portal to all federal, state and local government web resources and services.